contact:dominique.lefevre@mio.osupytheas.fr, maurice.libes@osupytheas.fr, didier.mallarino@osupytheas.fr
Project:EMSO http://www.emso-fr.org/EMSO-France
Depth: 2436.0 m
Title:EMSO Ligure Ouest : Data MII capteur MICROCAT
DateTime_Computer,Latitude,Longitude,Temperature,Conductivity,Pressure,DateTime_Instrument
DateTime_Computer,Latitude,Longitude,degC,S m-1,dbar,DateTime_Instrument
2020-10-14T00:01:20Z,42.805,6.029,13.2974,4.59976,2470.063,2020-10-14T02:02:14Z
2020-10-14T00:04:23Z,42.805,6.029,13.2973,4.59976,2470.063,2020-10-14T02:05:17Z
2020-10-14T00:07:26Z,42.805,6.029,13.2973,4.59978,2470.077,2020-10-14T02:08:20Z
2020-10-14T00:10:29Z,42.805,6.029,13.2975,4.59978,2470.053,2020-10-14T02:11:23Z
2020-10-14T00:13:33Z,42.805,6.029,13.2973,4.59976,2470.04,2020-10-14T02:14:26Z
2020-10-14T00:16:36Z,42.805,6.029,13.2976,4.59976,2470.063,2020-10-14T02:17:30Z
2020-10-14T00:19:39Z,42.805,6.029,13.2975,4.59977,2470.053,2020-10-14T02:20:33Z
2020-10-14T00:22:42Z,42.805,6.029,13.2976,4.59978,2470.077,2020-10-14T02:23:36Z
2020-10-14T00:25:45Z,42.805,6.029,13.2974,4.59976,2470.063,2020-10-14T02:26:39Z
2020-10-14T00:28:48Z,42.805,6.029,13.2972,4.59978,2470.1,2020-10-14T02:29:42Z
2020-10-14T00:31:51Z,42.805,6.029,13.2969,4.59977,2470.063,2020-10-14T02:32:45Z
2020-10-14T00:34:54Z,42.805,6.029,13.2976,4.59976,2470.077,2020-10-14T02:35:48Z
2020-10-14T00:37:57Z,42.805,6.029,13.2978,4.59978,2470.1,2020-10-14T02:38:51Z
2020-10-14T00:41:01Z,42.805,6.029,13.2976,4.59976,2470.063,2020-10-14T02:41:55Z
2020-10-14T00:44:04Z,42.805,6.029,13.2976,4.59978,2470.063,2020-10-14T02:44:58Z
2020-10-14T00:47:07Z,42.805,6.029,13.2975,4.59976,2470.063,2020-10-14T02:48:01Z
2020-10-14T00:50:10Z,42.805,6.029,13.2977,4.59978,2470.1,2020-10-14T02:51:04Z
2020-10-14T00:53:13Z,42.805,6.029,13.2976,4.59979,2470.087,2020-10-14T02:54:07Z
2020-10-14T00:56:16Z,42.805,6.029,13.2975,4.59977,2470.063,2020-10-14T02:57:10Z
2020-10-14T00:59:19Z,42.805,6.029,13.2978,4.59979,2470.087,2020-10-14T03:00:13Z
2020-10-14T01:02:22Z,42.805,6.029,13.2976,4.59978,2470.04,2020-10-14T03:03:16Z
2020-10-14T01:05:26Z,42.805,6.029,13.2979,4.59978,2470.04,2020-10-14T03:06:20Z
2020-10-14T01:08:29Z,42.805,6.029,13.2976,4.59978,2470.087,2020-10-14T03:09:23Z
2020-10-14T01:11:32Z,42.805,6.029,13.2980,4.59978,2470.1,2020-10-14T03:12:26Z
2020-10-14T01:14:35Z,42.805,6.029,13.2979,4.59978,2470.087,2020-10-14T03:15:29Z
2020-10-14T01:17:38Z,42.805,6.029,13.2976,4.59977,2470.049,2020-10-14T03:18:32Z
2020-10-14T01:20:41Z,42.805,6.029,13.2975,4.59979,2470.1,2020-10-14T03:21:35Z
2020-10-14T01:23:44Z,42.805,6.029,13.2976,4.59978,2470.1,2020-10-14T03:24:38Z
2020-10-14T01:26:47Z,42.805,6.029,13.2979,4.59978,2470.077,2020-10-14T03:27:41Z
2020-10-14T01:29:51Z,42.805,6.029,13.2975,4.59978,2470.11,2020-10-14T03:30:45Z
2020-10-14T01:32:54Z,42.805,6.029,13.2977,4.59978,2470.063,2020-10-14T03:33:48Z
2020-10-14T01:35:57Z,42.805,6.029,13.2976,4.59979,2470.077,2020-10-14T03:36:51Z
2020-10-14T01:39:00Z,42.805,6.029,13.2976,4.59978,2470.1,2020-10-14T03:39:54Z
2020-10-14T01:42:03Z,42.805,6.029,13.2973,4.59978,2470.124,2020-10-14T03:42:57Z
2020-10-14T01:45:06Z,42.805,6.029,13.2975,4.59978,2470.1,2020-10-14T03:46:00Z
2020-10-14T01:48:09Z,42.805,6.029,13.2976,4.59978,2470.063,2020-10-14T03:49:03Z
2020-10-14T01:51:12Z,42.805,6.029,13.2978,4.59978,2470.087,2020-10-14T03:52:06Z
2020-10-14T01:54:16Z,42.805,6.029,13.2976,4.59978,2470.11,2020-10-14T03:55:10Z
2020-10-14T01:57:19Z,42.805,6.029,13.2974,4.59978,2470.087,2020-10-14T03:58:13Z
2020-10-14T02:00:22Z,42.805,6.029,13.2980,4.59978,2470.1,2020-10-14T04:01:16Z
2020-10-14T02:03:25Z,42.805,6.029,13.2975,4.59980,2470.087,2020-10-14T04:04:19Z
2020-10-14T02:06:28Z,42.805,6.029,13.2976,4.59978,2470.087,2020-10-14T04:07:22Z
2020-10-14T02:09:31Z,42.805,6.029,13.2979,4.59980,2470.063,2020-10-14T04:10:25Z
2020-10-14T02:12:34Z,42.805,6.029,13.2976,4.59978,2470.11,2020-10-14T04:13:28Z
2020-10-14T02:15:37Z,42.805,6.029,13.2974,4.59978,2470.11,2020-10-14T04:16:31Z
2020-10-14T02:18:41Z,42.805,6.029,13.2975,4.59978,2470.063,2020-10-14T04:19:34Z
2020-10-14T02:21:44Z,42.805,6.029,13.2979,4.59978,2470.087,2020-10-14T04:22:38Z
2020-10-14T02:24:47Z,42.805,6.029,13.2981,4.59980,2470.124,2020-10-14T04:25:41Z
2020-10-14T02:27:50Z,42.805,6.029,13.2976,4.59979,2470.11,2020-10-14T04:28:44Z
2020-10-14T02:30:53Z,42.805,6.029,13.2980,4.59978,2470.11,2020-10-14T04:31:47Z
2020-10-14T02:33:56Z,42.805,6.029,13.2981,4.59978,2470.11,2020-10-14T04:34:50Z
2020-10-14T02:36:59Z,42.805,6.029,13.2975,4.59979,2470.147,2020-10-14T04:37:53Z
2020-10-14T02:40:02Z,42.805,6.029,13.2976,4.59978,2470.087,2020-10-14T04:40:56Z
2020-10-14T02:43:06Z,42.805,6.029,13.2976,4.59980,2470.133,2020-10-14T04:43:59Z
2020-10-14T02:46:09Z,42.805,6.029,13.2978,4.59978,2470.124,2020-10-14T04:47:03Z
2020-10-14T02:49:12Z,42.805,6.029,13.2979,4.59979,2470.087,2020-10-14T04:50:06Z
2020-10-14T02:52:15Z,42.805,6.029,13.2979,4.59978,2470.133,2020-10-14T04:53:09Z
2020-10-14T02:55:18Z,42.805,6.029,13.2980,4.59979,2470.133,2020-10-14T04:56:12Z
2020-10-14T02:58:21Z,42.805,6.029,13.2979,4.59978,2470.11,2020-10-14T04:59:15Z
2020-10-14T03:01:24Z,42.805,6.029,13.2979,4.59979,2470.171,2020-10-14T05:02:18Z
2020-10-14T03:04:27Z,42.805,6.029,13.2976,4.59978,2470.156,2020-10-14T05:05:21Z
2020-10-14T03:07:30Z,42.805,6.029,13.2978,4.59980,2470.133,2020-10-14T05:08:24Z
2020-10-14T03:10:34Z,42.805,6.029,13.2978,4.59978,2470.11,2020-10-14T05:11:28Z
2020-10-14T03:13:37Z,42.805,6.029,13.2979,4.59979,2470.171,2020-10-14T05:14:31Z
2020-10-14T03:16:40Z,42.805,6.029,13.2979,4.59978,2470.147,2020-10-14T05:17:34Z
2020-10-14T03:19:43Z,42.805,6.029,13.2978,4.59979,2470.156,2020-10-14T05:20:37Z
2020-10-14T03:22:46Z,42.805,6.029,13.2974,4.59979,2470.18,2020-10-14T05:23:40Z
2020-10-14T03:25:49Z,42.805,6.029,13.2979,4.59981,2470.156,2020-10-14T05:26:43Z
2020-10-14T03:28:52Z,42.805,6.029,13.2977,4.59979,2470.18,2020-10-14T05:29:46Z
2020-10-14T03:31:56Z,42.805,6.029,13.2979,4.59978,2470.18,2020-10-14T05:32:49Z
2020-10-14T03:34:59Z,42.805,6.029,13.2977,4.59981,2470.156,2020-10-14T05:35:53Z
2020-10-14T03:38:02Z,42.805,6.029,13.2978,4.59979,2470.147,2020-10-14T05:38:56Z
2020-10-14T03:41:05Z,42.805,6.029,13.2976,4.59980,2470.18,2020-10-14T05:41:59Z
2020-10-14T03:44:08Z,42.805,6.029,13.2981,4.59981,2470.133,2020-10-14T05:45:02Z
2020-10-14T03:47:11Z,42.805,6.029,13.2979,4.59979,2470.156,2020-10-14T05:48:05Z
2020-10-14T03:50:14Z,42.805,6.029,13.2976,4.59979,2470.156,2020-10-14T05:51:08Z
2020-10-14T03:53:17Z,42.805,6.029,13.2979,4.59979,2470.18,2020-10-14T05:54:11Z
2020-10-14T03:56:20Z,42.805,6.029,13.2976,4.59980,2470.194,2020-10-14T05:57:14Z
2020-10-14T03:59:24Z,42.805,6.029,13.2978,4.59978,2470.203,2020-10-14T06:00:18Z
2020-10-14T04:02:27Z,42.805,6.029,13.2973,4.59978,2470.18,2020-10-14T06:03:21Z
2020-10-14T04:05:30Z,42.805,6.029,13.2978,4.59978,2470.18,2020-10-14T06:06:24Z
2020-10-14T04:08:33Z,42.805,6.029,13.2976,4.59979,2470.203,2020-10-14T06:09:27Z
2020-10-14T04:11:36Z,42.805,6.029,13.2977,4.59979,2470.171,2020-10-14T06:12:30Z
2020-10-14T04:14:39Z,42.805,6.029,13.2976,4.59981,2470.18,2020-10-14T06:15:33Z
2020-10-14T04:17:42Z,42.805,6.029,13.2981,4.59979,2470.203,2020-10-14T06:18:36Z
2020-10-14T04:20:45Z,42.805,6.029,13.2977,4.59979,2470.194,2020-10-14T06:21:39Z
2020-10-14T04:23:49Z,42.805,6.029,13.2978,4.59978,2470.203,2020-10-14T06:24:43Z
2020-10-14T04:26:52Z,42.805,6.029,13.2977,4.59979,2470.156,2020-10-14T06:27:46Z
2020-10-14T04:29:55Z,42.805,6.029,13.2976,4.59979,2470.18,2020-10-14T06:30:49Z
2020-10-14T04:32:58Z,42.805,6.029,13.2974,4.59980,2470.18,2020-10-14T06:33:52Z
2020-10-14T04:36:01Z,42.805,6.029,13.2977,4.59978,2470.203,2020-10-14T06:36:55Z
2020-10-14T04:39:04Z,42.805,6.029,13.2979,4.59979,2470.217,2020-10-14T06:39:58Z
2020-10-14T04:42:07Z,42.805,6.029,13.2976,4.59981,2470.194,2020-10-14T06:43:01Z
2020-10-14T04:45:10Z,42.805,6.029,13.2976,4.59980,2470.213,2020-10-14T06:46:04Z
2020-10-14T04:48:14Z,42.805,6.029,13.2976,4.59981,2470.203,2020-10-14T06:49:08Z
2020-10-14T04:51:17Z,42.805,6.029,13.2976,4.59979,2470.194,2020-10-14T06:52:11Z
2020-10-14T04:54:20Z,42.805,6.029,13.2979,4.59981,2470.227,2020-10-14T06:55:14Z
2020-10-14T04:57:23Z,42.805,6.029,13.2979,4.59980,2470.217,2020-10-14T06:58:17Z
2020-10-14T05:00:26Z,42.805,6.029,13.2977,4.59979,2470.217,2020-10-14T07:01:20Z
2020-10-14T05:03:29Z,42.805,6.029,13.2978,4.59980,2470.189,2020-10-14T07:04:23Z
2020-10-14T05:06:32Z,42.805,6.029,13.2977,4.59981,2470.227,2020-10-14T07:07:26Z
2020-10-14T05:09:35Z,42.805,6.029,13.2979,4.59980,2470.227,2020-10-14T07:10:29Z
2020-10-14T05:12:39Z,42.805,6.029,13.2979,4.59982,2470.203,2020-10-14T07:13:33Z
2020-10-14T05:15:42Z,42.805,6.029,13.2974,4.59981,2470.203,2020-10-14T07:16:36Z
2020-10-14T05:18:45Z,42.805,6.029,13.2975,4.59981,2470.24,2020-10-14T07:19:39Z
2020-10-14T05:21:48Z,42.805,6.029,13.2976,4.59979,2470.194,2020-10-14T07:22:42Z
2020-10-14T05:24:51Z,42.805,6.029,13.2978,4.59979,2470.24,2020-10-14T07:25:45Z
2020-10-14T05:27:54Z,42.805,6.029,13.2978,4.59979,2470.194,2020-10-14T07:28:48Z
2020-10-14T05:30:57Z,42.805,6.029,13.2979,4.59980,2470.203,2020-10-14T07:31:51Z
2020-10-14T05:34:00Z,42.805,6.029,13.2978,4.59981,2470.203,2020-10-14T07:34:54Z
2020-10-14T05:37:04Z,42.805,6.029,13.2978,4.59980,2470.203,2020-10-14T07:37:58Z
2020-10-14T05:40:07Z,42.805,6.029,13.2977,4.59978,2470.217,2020-10-14T07:41:01Z
2020-10-14T05:43:10Z,42.805,6.029,13.2980,4.59980,2470.203,2020-10-14T07:44:04Z
2020-10-14T05:46:13Z,42.805,6.029,13.2976,4.59980,2470.203,2020-10-14T07:47:07Z
2020-10-14T05:49:16Z,42.805,6.029,13.2979,4.59980,2470.203,2020-10-14T07:50:10Z
2020-10-14T05:52:19Z,42.805,6.029,13.2979,4.59982,2470.18,2020-10-14T07:53:13Z
2020-10-14T05:55:22Z,42.805,6.029,13.2975,4.59979,2470.217,2020-10-14T07:56:16Z
2020-10-14T05:58:25Z,42.805,6.029,13.2977,4.59980,2470.217,2020-10-14T07:59:19Z
2020-10-14T06:01:29Z,42.805,6.029,13.2976,4.59979,2470.18,2020-10-14T08:02:22Z
2020-10-14T06:04:32Z,42.805,6.029,13.2979,4.59981,2470.217,2020-10-14T08:05:26Z
2020-10-14T06:07:35Z,42.805,6.029,13.2979,4.59979,2470.203,2020-10-14T08:08:29Z
2020-10-14T06:10:38Z,42.805,6.029,13.2974,4.59980,2470.203,2020-10-14T08:11:32Z
2020-10-14T06:13:41Z,42.805,6.029,13.2974,4.59981,2470.194,2020-10-14T08:14:35Z
2020-10-14T06:16:44Z,42.805,6.029,13.2977,4.59980,2470.217,2020-10-14T08:17:38Z
2020-10-14T06:19:47Z,42.805,6.029,13.2976,4.59981,2470.227,2020-10-14T08:20:41Z
2020-10-14T06:22:50Z,42.805,6.029,13.2979,4.59979,2470.203,2020-10-14T08:23:44Z
2020-10-14T06:25:53Z,42.805,6.029,13.2976,4.59981,2470.227,2020-10-14T08:26:47Z
2020-10-14T06:28:57Z,42.805,6.029,13.2975,4.59979,2470.189,2020-10-14T08:29:51Z
2020-10-14T06:32:00Z,42.805,6.029,13.2978,4.59979,2470.227,2020-10-14T08:32:54Z
2020-10-14T06:35:03Z,42.805,6.029,13.2976,4.59981,2470.203,2020-10-14T08:35:57Z
2020-10-14T06:38:06Z,42.805,6.029,13.2978,4.59979,2470.217,2020-10-14T08:39:00Z
2020-10-14T06:41:09Z,42.805,6.029,13.2979,4.59980,2470.18,2020-10-14T08:42:03Z
2020-10-14T06:44:12Z,42.805,6.029,13.2979,4.59979,2470.203,2020-10-14T08:45:06Z
2020-10-14T06:47:15Z,42.805,6.029,13.2979,4.59978,2470.203,2020-10-14T08:48:09Z
2020-10-14T06:50:18Z,42.805,6.029,13.2973,4.59978,2470.18,2020-10-14T08:51:12Z
2020-10-14T06:53:22Z,42.805,6.029,13.2976,4.59980,2470.203,2020-10-14T08:54:16Z
2020-10-14T06:56:25Z,42.805,6.029,13.2976,4.59979,2470.18,2020-10-14T08:57:19Z
2020-10-14T06:59:28Z,42.805,6.029,13.2978,4.59980,2470.217,2020-10-14T09:00:22Z
2020-10-14T07:02:31Z,42.805,6.029,13.2976,4.59978,2470.189,2020-10-14T09:03:25Z
2020-10-14T07:05:34Z,42.805,6.029,13.2979,4.59981,2470.217,2020-10-14T09:06:28Z
2020-10-14T07:08:37Z,42.805,6.029,13.2977,4.59978,2470.203,2020-10-14T09:09:31Z
2020-10-14T07:11:40Z,42.805,6.029,13.2977,4.59978,2470.18,2020-10-14T09:12:34Z
2020-10-14T07:14:43Z,42.805,6.029,13.2976,4.59981,2470.18,2020-10-14T09:15:37Z
2020-10-14T07:17:47Z,42.805,6.029,13.2976,4.59978,2470.18,2020-10-14T09:18:41Z
2020-10-14T07:20:50Z,42.805,6.029,13.2981,4.59978,2470.18,2020-10-14T09:21:44Z
2020-10-14T07:23:53Z,42.805,6.029,13.2975,4.59978,2470.156,2020-10-14T09:24:47Z
2020-10-14T07:26:56Z,42.805,6.029,13.2972,4.59978,2470.194,2020-10-14T09:27:50Z
2020-10-14T07:29:59Z,42.805,6.029,13.2977,4.59979,2470.194,2020-10-14T09:30:53Z
2020-10-14T07:33:02Z,42.805,6.029,13.2974,4.59978,2470.194,2020-10-14T09:33:56Z
2020-10-14T07:36:05Z,42.805,6.029,13.2976,4.59979,2470.156,2020-10-14T09:36:59Z
2020-10-14T07:39:08Z,42.805,6.029,13.2976,4.59978,2470.18,2020-10-14T09:40:02Z
2020-10-14T07:42:12Z,42.805,6.029,13.2975,4.59978,2470.18,2020-10-14T09:43:06Z
2020-10-14T07:45:15Z,42.805,6.029,13.2977,4.59978,2470.133,2020-10-14T09:46:09Z
2020-10-14T07:48:18Z,42.805,6.029,13.2977,4.59979,2470.18,2020-10-14T09:49:12Z
2020-10-14T07:51:21Z,42.805,6.029,13.2977,4.59978,2470.194,2020-10-14T09:52:15Z
2020-10-14T07:54:24Z,42.805,6.029,13.2979,4.59978,2470.156,2020-10-14T09:55:18Z
2020-10-14T07:57:27Z,42.805,6.029,13.2978,4.59978,2470.147,2020-10-14T09:58:21Z
2020-10-14T08:00:30Z,42.805,6.029,13.2976,4.59978,2470.171,2020-10-14T10:01:24Z
2020-10-14T08:03:33Z,42.805,6.029,13.2973,4.59977,2470.171,2020-10-14T10:04:27Z
2020-10-14T08:06:37Z,42.805,6.029,13.2980,4.59978,2470.194,2020-10-14T10:07:31Z
2020-10-14T08:09:40Z,42.805,6.029,13.2978,4.59979,2470.171,2020-10-14T10:10:34Z
2020-10-14T08:12:43Z,42.805,6.029,13.2975,4.59978,2470.171,2020-10-14T10:13:37Z
2020-10-14T08:15:46Z,42.805,6.029,13.2974,4.59978,2470.18,2020-10-14T10:16:40Z
2020-10-14T08:18:49Z,42.805,6.029,13.2976,4.59978,2470.133,2020-10-14T10:19:43Z
2020-10-14T08:21:52Z,42.805,6.029,13.2978,4.59977,2470.156,2020-10-14T10:22:46Z
2020-10-14T08:24:55Z,42.805,6.029,13.2974,4.59978,2470.133,2020-10-14T10:25:49Z
2020-10-14T08:27:58Z,42.805,6.029,13.2975,4.59979,2470.156,2020-10-14T10:28:52Z
2020-10-14T08:31:02Z,42.805,6.029,13.2979,4.59978,2470.171,2020-10-14T10:31:56Z
2020-10-14T08:34:05Z,42.805,6.029,13.2975,4.59978,2470.147,2020-10-14T10:34:59Z
2020-10-14T08:37:08Z,42.805,6.029,13.2976,4.59978,2470.133,2020-10-14T10:38:02Z
2020-10-14T08:40:11Z,42.805,6.029,13.2980,4.59978,2470.156,2020-10-14T10:41:05Z
2020-10-14T08:43:14Z,42.805,6.029,13.2976,4.59978,2470.147,2020-10-14T10:44:08Z
2020-10-14T08:46:17Z,42.805,6.029,13.2976,4.59979,2470.156,2020-10-14T10:47:11Z
2020-10-14T08:49:20Z,42.805,6.029,13.2978,4.59979,2470.133,2020-10-14T10:50:14Z
2020-10-14T08:52:23Z,42.805,6.029,13.2974,4.59978,2470.124,2020-10-14T10:53:17Z
2020-10-14T08:55:27Z,42.805,6.029,13.2976,4.59978,2470.133,2020-10-14T10:56:21Z
2020-10-14T08:58:30Z,42.805,6.029,13.2976,4.59978,2470.133,2020-10-14T10:59:24Z
2020-10-14T09:01:33Z,42.805,6.029,13.2977,4.59978,2470.133,2020-10-14T11:02:27Z
2020-10-14T09:04:36Z,42.805,6.029,13.2979,4.59978,2470.1,2020-10-14T11:05:30Z
2020-10-14T09:07:39Z,42.805,6.029,13.2979,4.59978,2470.11,2020-10-14T11:08:33Z
2020-10-14T09:10:42Z,42.805,6.029,13.2975,4.59978,2470.133,2020-10-14T11:11:36Z
2020-10-14T09:13:45Z,42.805,6.029,13.2974,4.59977,2470.133,2020-10-14T11:14:39Z
2020-10-14T09:16:48Z,42.805,6.029,13.2977,4.59978,2470.156,2020-10-14T11:17:42Z
2020-10-14T09:19:52Z,42.805,6.029,13.2973,4.59978,2470.133,2020-10-14T11:20:46Z
2020-10-14T09:22:55Z,42.805,6.029,13.2980,4.59978,2470.133,2020-10-14T11:23:49Z
2020-10-14T09:25:58Z,42.805,6.029,13.2974,4.59978,2470.133,2020-10-14T11:26:52Z
2020-10-14T09:29:01Z,42.805,6.029,13.2978,4.59978,2470.11,2020-10-14T11:29:55Z
2020-10-14T09:32:04Z,42.805,6.029,13.2974,4.59978,2470.147,2020-10-14T11:32:58Z
2020-10-14T09:35:07Z,42.805,6.029,13.2975,4.59978,2470.11,2020-10-14T11:36:01Z
2020-10-14T09:38:10Z,42.805,6.029,13.2978,4.59978,2470.11,2020-10-14T11:39:04Z
2020-10-14T09:41:13Z,42.805,6.029,13.2977,4.59978,2470.096,2020-10-14T11:42:07Z
2020-10-14T09:44:17Z,42.805,6.029,13.2974,4.59978,2470.11,2020-10-14T11:45:11Z
2020-10-14T09:47:20Z,42.805,6.029,13.2976,4.59978,2470.133,2020-10-14T11:48:14Z
2020-10-14T09:50:23Z,42.805,6.029,13.2977,4.59980,2470.11,2020-10-14T11:51:17Z
2020-10-14T09:53:26Z,42.805,6.029,13.2972,4.59978,2470.1,2020-10-14T11:54:20Z
2020-10-14T09:56:29Z,42.805,6.029,13.2976,4.59978,2470.124,2020-10-14T11:57:23Z
2020-10-14T09:59:32Z,42.805,6.029,13.2972,4.59978,2470.087,2020-10-14T12:00:26Z
2020-10-14T10:02:35Z,42.805,6.029,13.2976,4.59978,2470.087,2020-10-14T12:03:29Z
2020-10-14T10:05:38Z,42.805,6.029,13.2976,4.59979,2470.11,2020-10-14T12:06:32Z
2020-10-14T10:08:42Z,42.805,6.029,13.2978,4.59984,2470.11,2020-10-14T12:09:36Z
2020-10-14T10:11:45Z,42.805,6.029,13.2978,4.59978,2470.124,2020-10-14T12:12:39Z
2020-10-14T10:14:48Z,42.805,6.029,13.2976,4.59978,2470.11,2020-10-14T12:15:42Z
2020-10-14T10:17:51Z,42.805,6.029,13.2976,4.59978,2470.11,2020-10-14T12:18:45Z
2020-10-14T10:20:54Z,42.805,6.029,13.2977,4.59978,2470.087,2020-10-14T12:21:48Z
2020-10-14T10:23:57Z,42.805,6.029,13.2976,4.59978,2470.087,2020-10-14T12:24:51Z
2020-10-14T10:27:00Z,42.805,6.029,13.2979,4.59978,2470.11,2020-10-14T12:27:54Z
2020-10-14T10:30:04Z,42.805,6.029,13.2976,4.59976,2470.1,2020-10-14T12:30:58Z
2020-10-14T10:33:07Z,42.805,6.029,13.2976,4.59978,2470.077,2020-10-14T12:34:01Z
2020-10-14T10:36:10Z,42.805,6.029,13.2973,4.59976,2470.087,2020-10-14T12:37:04Z
2020-10-14T10:39:13Z,42.805,6.029,13.2976,4.59976,2470.124,2020-10-14T12:40:07Z
2020-10-14T10:42:16Z,42.805,6.029,13.2974,4.59978,2470.124,2020-10-14T12:43:10Z
2020-10-14T10:45:19Z,42.805,6.029,13.2977,4.59977,2470.063,2020-10-14T12:46:13Z
2020-10-14T10:48:22Z,42.805,6.029,13.2978,4.59978,2470.087,2020-10-14T12:49:16Z
2020-10-14T10:51:25Z,42.805,6.029,13.2974,4.59978,2470.087,2020-10-14T12:52:19Z
2020-10-14T10:54:29Z,42.805,6.029,13.2979,4.59979,2470.1,2020-10-14T12:55:23Z
2020-10-14T10:57:32Z,42.805,6.029,13.2978,4.59976,2470.077,2020-10-14T12:58:26Z
2020-10-14T11:00:35Z,42.805,6.029,13.2974,4.59979,2470.077,2020-10-14T13:01:29Z
2020-10-14T11:03:38Z,42.805,6.029,13.2974,4.59976,2470.1,2020-10-14T13:04:32Z
2020-10-14T11:06:41Z,42.805,6.029,13.2978,4.59976,2470.124,2020-10-14T13:07:35Z
2020-10-14T11:09:44Z,42.805,6.029,13.2972,4.59978,2470.077,2020-10-14T13:10:38Z
2020-10-14T11:12:47Z,42.805,6.029,13.2972,4.59978,2470.1,2020-10-14T13:13:41Z
2020-10-14T11:15:50Z,42.805,6.029,13.2976,4.59978,2470.087,2020-10-14T13:16:44Z
2020-10-14T11:18:54Z,42.805,6.029,13.2974,4.59978,2470.1,2020-10-14T13:19:48Z
2020-10-14T11:21:57Z,42.805,6.029,13.2974,4.59980,2470.087,2020-10-14T13:22:51Z
2020-10-14T11:25:00Z,42.805,6.029,13.2974,4.59977,2470.087,2020-10-14T13:25:54Z
2020-10-14T11:28:03Z,42.805,6.029,13.2976,4.59978,2470.087,2020-10-14T13:28:57Z
2020-10-14T11:31:06Z,42.805,6.029,13.2976,4.59978,2470.1,2020-10-14T13:32:00Z
2020-10-14T11:34:09Z,42.805,6.029,13.2976,4.59980,2470.087,2020-10-14T13:35:03Z
2020-10-14T11:37:12Z,42.805,6.029,13.2977,4.59978,2470.063,2020-10-14T13:38:06Z
2020-10-14T11:40:15Z,42.805,6.029,13.2977,4.59979,2470.1,2020-10-14T13:41:09Z
2020-10-14T11:43:19Z,42.805,6.029,13.2976,4.59979,2470.087,2020-10-14T13:44:13Z
2020-10-14T11:46:22Z,42.805,6.029,13.2975,4.59978,2470.077,2020-10-14T13:47:16Z
2020-10-14T11:49:25Z,42.805,6.029,13.2979,4.59978,2470.063,2020-10-14T13:50:19Z
2020-10-14T11:52:28Z,42.805,6.029,13.2979,4.59978,2470.087,2020-10-14T13:53:22Z
2020-10-14T11:55:31Z,42.805,6.029,13.2976,4.59978,2470.1,2020-10-14T13:56:25Z
2020-10-14T11:58:34Z,42.805,6.029,13.2980,4.59980,2470.087,2020-10-14T13:59:28Z
2020-10-14T12:01:37Z,42.805,6.029,13.2977,4.59979,2470.063,2020-10-14T14:02:31Z
2020-10-14T12:04:41Z,42.805,6.029,13.2978,4.59979,2470.124,2020-10-14T14:05:34Z
2020-10-14T12:07:44Z,42.805,6.029,13.2980,4.59980,2470.1,2020-10-14T14:08:38Z
2020-10-14T12:10:47Z,42.805,6.029,13.2973,4.59978,2470.087,2020-10-14T14:11:41Z
2020-10-14T12:13:50Z,42.805,6.029,13.2979,4.59980,2470.087,2020-10-14T14:14:44Z
2020-10-14T12:16:53Z,42.805,6.029,13.2979,4.59978,2470.087,2020-10-14T14:17:47Z
2020-10-14T12:19:56Z,42.805,6.029,13.2976,4.59978,2470.11,2020-10-14T14:20:50Z
2020-10-14T12:22:59Z,42.805,6.029,13.2976,4.59978,2470.077,2020-10-14T14:23:53Z
2020-10-14T12:26:02Z,42.805,6.029,13.2978,4.59978,2470.11,2020-10-14T14:26:56Z
2020-10-14T12:29:06Z,42.805,6.029,13.2976,4.59978,2470.087,2020-10-14T14:29:59Z
2020-10-14T12:32:09Z,42.805,6.029,13.2972,4.59978,2470.087,2020-10-14T14:33:03Z
2020-10-14T12:35:12Z,42.805,6.029,13.2979,4.59979,2470.087,2020-10-14T14:36:06Z
2020-10-14T12:38:15Z,42.805,6.029,13.2974,4.59978,2470.11,2020-10-14T14:39:09Z
2020-10-14T12:41:18Z,42.805,6.029,13.2976,4.59978,2470.087,2020-10-14T14:42:12Z
2020-10-14T12:44:21Z,42.805,6.029,13.2974,4.59978,2470.087,2020-10-14T14:45:15Z
2020-10-14T12:47:24Z,42.805,6.029,13.2977,4.59978,2470.11,2020-10-14T14:48:18Z
2020-10-14T12:50:27Z,42.805,6.029,13.2977,4.59978,2470.11,2020-10-14T14:51:21Z
2020-10-14T12:53:31Z,42.805,6.029,13.2974,4.59979,2470.147,2020-10-14T14:54:25Z
2020-10-14T12:56:34Z,42.805,6.029,13.2979,4.59980,2470.1,2020-10-14T14:57:28Z
2020-10-14T12:59:37Z,42.805,6.029,13.2978,4.59978,2470.133,2020-10-14T15:00:31Z
2020-10-14T13:02:40Z,42.805,6.029,13.2979,4.59978,2470.087,2020-10-14T15:03:34Z
2020-10-14T13:05:43Z,42.805,6.029,13.2975,4.59978,2470.11,2020-10-14T15:06:37Z
2020-10-14T13:08:46Z,42.805,6.029,13.2979,4.59978,2470.11,2020-10-14T15:09:40Z
2020-10-14T13:11:49Z,42.805,6.029,13.2977,4.59978,2470.087,2020-10-14T15:12:43Z
2020-10-14T13:14:52Z,42.805,6.029,13.2976,4.59978,2470.124,2020-10-14T15:15:46Z
2020-10-14T13:17:56Z,42.805,6.029,13.2979,4.59978,2470.147,2020-10-14T15:18:50Z
2020-10-14T13:20:59Z,42.805,6.029,13.2977,4.59978,2470.133,2020-10-14T15:21:53Z
2020-10-14T13:24:02Z,42.805,6.029,13.2981,4.59980,2470.11,2020-10-14T15:24:56Z
2020-10-14T13:27:05Z,42.805,6.029,13.2979,4.59979,2470.11,2020-10-14T15:27:59Z
2020-10-14T13:30:08Z,42.805,6.029,13.2979,4.59979,2470.087,2020-10-14T15:31:02Z
2020-10-14T13:33:11Z,42.805,6.029,13.2980,4.59978,2470.133,2020-10-14T15:34:05Z
2020-10-14T13:36:14Z,42.805,6.029,13.2981,4.59978,2470.171,2020-10-14T15:37:08Z
2020-10-14T13:39:17Z,42.805,6.029,13.2976,4.59979,2470.133,2020-10-14T15:40:11Z
2020-10-14T13:42:21Z,42.805,6.029,13.2978,4.59979,2470.156,2020-10-14T15:43:15Z
2020-10-14T13:45:24Z,42.805,6.029,13.2977,4.59979,2470.156,2020-10-14T15:46:18Z
2020-10-14T13:48:27Z,42.805,6.029,13.2979,4.59979,2470.171,2020-10-14T15:49:21Z
2020-10-14T13:51:30Z,42.805,6.029,13.2975,4.59978,2470.147,2020-10-14T15:52:24Z
2020-10-14T13:54:33Z,42.805,6.029,13.2981,4.59979,2470.119,2020-10-14T15:55:27Z
2020-10-14T13:57:36Z,42.805,6.029,13.2976,4.59978,2470.147,2020-10-14T15:58:30Z
2020-10-14T14:00:39Z,42.805,6.029,13.2976,4.59978,2470.156,2020-10-14T16:01:33Z
2020-10-14T14:03:42Z,42.805,6.029,13.2976,4.59980,2470.156,2020-10-14T16:04:36Z
2020-10-14T14:06:46Z,42.805,6.029,13.2977,4.59979,2470.156,2020-10-14T16:07:40Z
2020-10-14T14:09:49Z,42.805,6.029,13.2978,4.59979,2470.194,2020-10-14T16:10:43Z
2020-10-14T14:12:52Z,42.805,6.029,13.2980,4.59979,2470.171,2020-10-14T16:13:46Z
2020-10-14T14:15:55Z,42.805,6.029,13.2976,4.59981,2470.156,2020-10-14T16:16:49Z
2020-10-14T14:18:58Z,42.805,6.029,13.2979,4.59978,2470.156,2020-10-14T16:19:52Z
2020-10-14T14:22:01Z,42.805,6.029,13.2977,4.59978,2470.194,2020-10-14T16:22:55Z
2020-10-14T14:25:04Z,42.805,6.029,13.2976,4.59981,2470.18,2020-10-14T16:25:58Z
2020-10-14T14:28:07Z,42.805,6.029,13.2977,4.59981,2470.18,2020-10-14T16:29:01Z
2020-10-14T14:31:11Z,42.805,6.029,13.2979,4.59980,2470.194,2020-10-14T16:32:05Z
2020-10-14T14:34:14Z,42.805,6.029,13.2976,4.59978,2470.18,2020-10-14T16:35:08Z
2020-10-14T14:37:17Z,42.805,6.029,13.2978,4.59982,2470.203,2020-10-14T16:38:11Z
2020-10-14T14:40:20Z,42.805,6.029,13.2978,4.59980,2470.18,2020-10-14T16:41:14Z
2020-10-14T14:43:23Z,42.805,6.029,13.2979,4.59980,2470.203,2020-10-14T16:44:17Z
2020-10-14T14:46:26Z,42.805,6.029,13.2979,4.59981,2470.24,2020-10-14T16:47:20Z
2020-10-14T14:49:29Z,42.805,6.029,13.2977,4.59981,2470.203,2020-10-14T16:50:23Z
2020-10-14T14:52:33Z,42.805,6.029,13.2979,4.59980,2470.203,2020-10-14T16:53:26Z
2020-10-14T14:55:36Z,42.805,6.029,13.2979,4.59979,2470.217,2020-10-14T16:56:30Z
2020-10-14T14:58:39Z,42.805,6.029,13.2979,4.59979,2470.24,2020-10-14T16:59:33Z
2020-10-14T15:01:42Z,42.805,6.029,13.2977,4.59981,2470.227,2020-10-14T17:02:36Z